Regional Weather Roundup
Issued by NWS

Home | Current Version | Previous Version | Graphics & Text | Print | Product List | Glossary On
Versions: 1 2 3 4 5 6 7 8 9 10 11 12 13 14 15 16 17 18 19 20 21 22 23 24 25 26 27 28 29 30 31 32 33 34 35 36 37 38 39 40 41 42 43 44 45 46 47 48 49 50
000
ASUS43 KOAX 231202
RWRNE

WEATHER ROUNDUP FOR NEBRASKA
NATIONAL WEATHER SERVICE OMAHA NE
700 AM CDT SAT MAY 23 2015

NOTES: SATELLITE DATA IS BEING USED TO AUGMENT CLOUD COVER ABOVE
       12000 FEET.
       "FAIR" INDICATES FEW OR NO CLOUDS BELOW 12,000 FEET WITH NO
       SIGNIFICANT WEATHER AND/OR OBSTRUCTIONS TO VISIBILITY.

  * THESE STATIONS DO NOT REPORT WEATHER SUCH AS RAIN...SNOW OR FOG.

NEZ001>004-019>022-054>056-231300-
NEBRASKA PANHANDLE

CITY           SKY/WX    TMP DP  RH WIND       PRES   REMARKS
SCOTTSBLUFF    FOG       46  46 100 E8        30.03S VSB 3/4
6HR MIN TEMP:  45; 6HR MAX TEMP:  46;

ALLIANCE       CLOUDY    47  47 100 E5        30.04R FOG
6HR MIN TEMP:  45; 6HR MAX TEMP:  47;

CHADRON        CLOUDY    48  45  89 SE5       30.05R
6HR MIN TEMP:  46; 6HR MAX TEMP:  48; 6HR PCP: TRACE;

SIDNEY         FOG       49  48  97 NE3       30.04S VSB 1/4
6HR MIN TEMP:  46; 6HR MAX TEMP:  49; 6HR PCP:  0.02;

$$

NEZ057>060-069>072-079>082-231300-
SOUTHWEST NEBRASKA

CITY           SKY/WX    TMP DP  RH WIND       PRES   REMARKS
NORTH PLATTE   CLOUDY    53  51  93 SE12      30.06R
6HR MIN TEMP:  50; 6HR MAX TEMP:  53; 6HR PCP:  0.06;

IMPERIAL       CLOUDY    52  50  93 SE13      30.03F
6HR MIN TEMP:  51; 6HR MAX TEMP:  52; 6HR PCP:  0.66;

MCCOOK         CLOUDY    53  52  96 SE14      30.03F
6HR MIN TEMP:  53; 6HR MAX TEMP:  54; 6HR PCP:  0.11;

$$

NEZ005>010-023>029-035>040-094-231300-
NORTH CENTRAL NEBRASKA

CITY           SKY/WX    TMP DP  RH WIND       PRES   REMARKS
VALENTINE      CLOUDY    49  48  97 E7        30.09S FOG
6HR MIN TEMP:  48; 6HR MAX TEMP:  49; 6HR PCP:  0.11;

BROKEN BOW     FOG       53  52  96 SE10      30.09R VSB 3/4
6HR MIN TEMP:  51; 6HR MAX TEMP:  53; 6HR PCP: TRACE;

ORD            CLOUDY    52  50  93 SE7       30.11S
6HR MIN TEMP:  50; 6HR MAX TEMP:  53; 6HR PCP: TRACE;

$$

NEZ041-046>049-061>064-073>077-083>087-231300-
SOUTH CENTRAL NEBRASKA

CITY           SKY/WX    TMP DP  RH WIND       PRES   REMARKS
GRAND ISLAND   CLOUDY    53  50  89 SE10      30.15S
6HR MIN TEMP:  52; 6HR MAX TEMP:  54;

HASTINGS       CLOUDY    53  51  93 SE8       30.13F
6HR MIN TEMP:  53; 6HR MAX TEMP:  54; 6HR PCP: TRACE;

KEARNEY *      CLOUDY    52  50  93 SE12      30.11F VSB 1/2
$$

NEZ011>018-030>034-042>045-231300-
NORTHEAST NEBRASKA

CITY           SKY/WX    TMP DP  RH WIND       PRES   REMARKS
NORFOLK        CLOUDY    54  49  83 SE6       30.18R
6HR MIN TEMP:  53; 6HR MAX TEMP:  55;

COLUMBUS *     CLOUDY    54  46  76 SE7       30.21S
TEKAMAH        CLOUDY    57  52  83 SE6       30.20R
6HR MIN TEMP:  56; 6HR MAX TEMP:  58; 6HR PCP: TRACE;

$$

NEZ050>053-065>068-078-088>093-231300-
SOUTHEAST NEBRASKA

CITY           SKY/WX    TMP DP  RH WIND       PRES   REMARKS
LINCOLN        CLOUDY    56  51  84 S8        30.20R
6HR MIN TEMP:  56; 6HR MAX TEMP:  59; 6HR PCP: TRACE;

OMAHA EPPLEY   CLOUDY    59  51  75 SE6       30.21R
6HR MIN TEMP:  58; 6HR MAX TEMP:  60;

FALLS CITY     CLOUDY    56  54  93 SE3       30.21R
6HR MIN TEMP:  56; 6HR MAX TEMP:  58; 6HR PCP:  0.02;

$$

NEZ044-045-051>053-067-231300-
OMAHA AREA

CITY           SKY/WX    TMP DP  RH WIND       PRES   REMARKS
OMAHA EPPLEY   CLOUDY    59  51  75 SE6       30.21R
6HR MIN TEMP:  58; 6HR MAX TEMP:  60;

OFFUTT AFB     MOCLDY    57  52  85 SE2       30.20R
$$


USA.gov is the U.S. government's official web portal to all federal, state and local government web resources and services.